Location: Santa Giusta
(39.8800°N, 8.6069°E)
Time: 16:50:16
(UTC+00:00)

Cosmos 1980 Rocket - Pass Details

Date: 02 February 2023
Orbit: 828 x 850 km, 71.0° (Epoch: 31 March)

Event Time Altitude Azimuth Distance (km) Brightness Sun altitude
Rises 17:12:42 0° 229° (SW) 3,376 6.8 -5.7°
Reaches altitude 10° 17:15:23 10° 239° (WSW) 2,449 6.2 -6.2°
Maximum altitude 17:20:23 32° 302° (WNW) 1,404 3.9 -7.1°
Drops below altitude 10° 17:25:27 10° 5° (N) 2,475 4.4 -8.1°
Sets 17:28:11 0° 15° (NNE) 3,417 5.1 -8.6°
